Date String (YYYY-MM-DD hh:mm:ss) UTC,Instrument flags,Ambient pressure (hPa),Sample flow (lpm),Bypass flow (lpm),Sample temperature (°C),Ambient temperature (°C),ASC tube jacket temperature (°C),LED temperature (°C),Box temperature (°C),Sample RH (%),Span deviation,Mass concentration (μg/m³),Mass concentration (μg/m³),Mass concentration (μg/m³)
DateTimeUTC,F1_M11,P_M11,Q1_M11,Q2_M11,T1_M11,T2_M11,T3_M11,T4_M11,T5_M11,U1_M11,ZSPAN_M11,X0_M11,X2_M11,X1_M11
2023-05-21 18:00:00,,0833.6,5.00,0.00,29.7,26.7,00.0,38.0,31.1,14.8,0003.2,0023.58,0016.56,0015.62
2023-05-21 18:01:00,,0833.7,5.00,0.00,29.7,27.0,00.0,38.0,31.2,16.2,0003.3,0023.63,0016.56,0015.61
2023-05-21 18:02:00,,0833.7,5.00,0.00,29.7,27.2,00.0,38.0,31.2,16.2,0003.3,0023.15,0016.54,0015.60
2023-05-21 18:03:00,,0833.7,4.99,0.00,29.7,27.5,00.0,38.0,31.2,15.7,0003.4,0022.45,0016.56,0015.61
2023-05-21 18:04:00,,0833.7,4.99,0.00,29.7,27.7,00.0,38.0,31.3,15.4,0003.4,0022.41,0016.59,0015.62
2023-05-21 18:05:00,,0833.7,5.01,0.00,29.7,27.8,00.0,38.0,31.3,15.8,0003.4,0021.82,0016.62,0015.63
2023-05-21 18:06:00,,0833.7,5.02,0.00,29.7,28.0,00.0,38.0,31.3,15.1,0003.4,0022.25,0016.66,0015.64
2023-05-21 18:07:00,,0833.7,4.99,0.00,29.7,28.1,00.0,38.0,31.4,15.2,0003.4,0022.36,0016.73,0015.71
2023-05-21 18:08:00,,0833.7,4.99,0.00,29.7,28.2,00.0,38.0,31.4,15.6,0003.6,0022.40,0016.75,0015.72
2023-05-21 18:09:00,,0833.7,5.01,0.00,29.8,28.2,00.0,38.0,31.4,15.0,0003.6,0022.36,0016.73,0015.71
2023-05-21 18:10:00,,0833.6,5.01,0.00,29.8,28.3,00.0,38.1,31.4,14.4,0003.5,0022.24,0016.70,0015.70
2023-05-21 18:11:00,,0833.7,4.99,0.00,29.8,28.4,00.0,38.1,31.5,14.5,0003.7,0022.38,0016.68,0015.68
2023-05-21 18:12:00,,0833.7,5.00,0.00,29.8,28.4,00.0,38.1,31.5,14.9,0003.7,0022.89,0016.74,0015.73
2023-05-21 18:13:00,,0833.7,5.01,0.00,29.8,28.5,00.0,38.1,31.5,15.9,0003.8,0022.72,0016.77,0015.76
2023-05-21 18:14:00,,0833.7,4.99,0.00,29.9,28.5,00.0,38.1,31.5,14.9,0003.9,0022.78,0016.76,0015.77
2023-05-21 18:15:00,,0833.7,5.00,0.00,29.9,28.6,00.0,38.1,31.6,15.3,0003.9,0022.91,0016.78,0015.77
2023-05-21 18:16:00,,0833.7,4.99,0.00,29.9,28.6,00.0,38.2,31.6,14.9,0003.8,0022.88,0016.75,0015.74
2023-05-21 18:17:00,,0833.7,5.00,0.00,29.9,27.5,00.0,38.1,31.5,14.8,0003.7,0022.81,0016.73,0015.73
2023-05-21 18:18:00,,0833.7,5.00,0.00,29.9,26.3,00.0,38.0,31.3,15.0,0003.8,0023.30,0016.79,0015.76
2023-05-21 18:19:00,,0833.6,5.00,0.00,29.8,26.3,00.0,38.0,31.2,15.7,0003.7,0023.46,0016.86,0015.80
2023-05-21 18:20:00,,0833.6,5.01,0.00,29.7,26.5,00.0,38.0,31.1,16.2,0003.7,0023.31,0016.87,0015.85
2023-05-21 18:21:00,,0833.6,5.01,0.00,29.7,26.8,00.0,38.0,31.2,15.3,0003.7,0023.44,0016.92,0015.88
2023-05-21 18:22:00,,0833.6,4.99,0.00,29.7,27.0,00.0,38.0,31.2,15.1,0003.6,0023.59,0017.00,0015.94
2023-05-21 18:23:00,,0833.6,5.00,0.00,29.7,27.3,00.0,38.0,31.2,16.6,0003.5,0023.44,0017.05,0015.99
2023-05-21 18:24:00,,0833.6,5.01,0.00,29.7,27.5,00.0,38.0,31.3,16.2,0003.6,0023.50,0017.08,0016.00
2023-05-21 18:25:00,,0833.6,5.00,0.00,29.7,27.7,00.0,38.0,31.3,15.7,0003.5,0023.46,0017.10,0016.02
2023-05-21 18:26:00,,0833.6,4.98,0.00,29.7,27.8,00.0,38.0,31.3,16.0,0003.4,0023.38,0017.12,0016.04
2023-05-21 18:27:00,,0833.6,5.01,0.00,29.7,28.0,00.0,38.0,31.3,16.8,0003.4,0023.45,0017.18,0016.09
2023-05-21 18:28:00,,0833.6,5.01,0.00,29.7,28.1,00.0,38.0,31.4,16.4,0003.6,0022.95,0017.18,0016.13
2023-05-21 18:29:00,,0833.6,5.00,0.00,29.8,28.2,00.0,38.0,31.4,16.5,0003.5,0023.16,0017.14,0016.13
2023-05-21 18:30:00,,0833.5,4.99,0.00,29.8,28.3,00.0,38.1,31.4,16.6,0003.5,0023.29,0017.12,0016.15
2023-05-21 18:31:00,,0833.5,5.00,0.00,29.8,28.4,00.0,38.1,31.5,15.5,0003.5,0023.38,0017.14,0016.15
2023-05-21 18:32:00,,0833.5,5.01,0.00,29.8,28.4,00.0,38.1,31.5,16.4,0003.5,0023.50,0017.14,0016.16
2023-05-21 18:33:00,,0833.6,5.01,0.00,29.8,28.5,00.0,38.1,31.5,15.8,0003.6,0023.89,0017.13,0016.16
2023-05-21 18:34:00,,0833.6,4.99,0.00,29.9,28.5,00.0,38.1,31.5,15.5,0003.6,0023.95,0017.08,0016.16
2023-05-21 18:35:00,,0833.6,5.00,0.00,29.9,28.6,00.0,38.1,31.6,15.3,0003.6,0024.05,0017.13,0016.19
2023-05-21 18:36:00,,0833.6,5.00,0.00,29.9,27.8,00.0,38.1,31.5,15.9,0003.6,0024.20,0017.21,0016.25
2023-05-21 18:37:00,,0833.5,5.00,0.00,29.8,26.4,00.0,38.0,31.2,15.9,0003.6,0024.22,0017.23,0016.27
2023-05-21 18:38:00,,0833.5,5.01,0.00,29.8,26.2,00.0,38.0,31.2,16.4,0003.7,0024.17,0017.23,0016.30
2023-05-21 18:39:00,,0833.5,5.02,0.00,29.7,26.4,00.0,38.0,31.1,16.0,0003.6,0024.54,0017.25,0016.30
2023-05-21 18:40:00,,0833.5,5.00,0.00,29.7,26.7,00.0,38.0,31.1,16.6,0003.8,0024.94,0017.26,0016.29
2023-05-21 18:41:00,,0833.5,5.00,0.00,29.6,26.9,00.0,38.0,31.1,16.0,0003.7,0024.79,0017.28,0016.28
2023-05-21 18:42:00,,0833.5,5.01,0.00,29.6,27.2,00.0,38.0,31.2,16.1,0003.7,0024.76,0017.27,0016.29
2023-05-21 18:43:00,,0833.5,5.00,0.00,29.7,27.4,00.0,38.0,31.2,16.0,0003.6,0024.55,0017.25,0016.29
2023-05-21 18:44:00,,0833.5,4.98,0.00,29.7,27.6,00.0,38.0,31.3,17.5,0003.6,0024.04,0017.27,0016.32
2023-05-21 18:45:00,,0833.4,5.00,0.00,29.7,27.8,00.0,38.0,31.3,17.2,0003.6,0023.72,0017.32,0016.35
2023-05-21 18:46:00,,0833.4,5.01,0.00,29.7,28.0,00.0,38.0,31.3,15.9,0003.6,0024.30,0017.29,0016.38
2023-05-21 18:47:00,,0833.4,4.99,0.00,29.7,28.1,00.0,38.0,31.4,16.0,0003.6,0025.35,0017.30,0016.38
2023-05-21 18:48:00,,0833.4,5.00,0.00,29.7,28.2,00.0,38.0,31.4,16.1,0003.6,0025.51,0017.35,0016.40
2023-05-21 18:49:00,,0833.4,5.01,0.00,29.7,28.3,00.0,38.0,31.4,16.1,0003.7,0025.56,0017.40,0016.43
2023-05-21 18:50:00,,0833.4,5.00,0.00,29.8,28.3,00.0,38.0,31.4,15.8,0003.7,0025.27,0017.46,0016.48
2023-05-21 18:51:00,,0833.4,4.99,0.00,29.8,28.4,00.0,38.0,31.4,15.4,0003.7,0024.54,0017.46,0016.52
2023-05-21 18:52:00,,0833.4,5.00,0.00,29.8,28.4,00.0,38.1,31.5,16.1,0003.7,0025.49,0017.49,0016.53
2023-05-21 18:53:00,,0833.4,5.01,0.00,29.8,27.8,00.0,38.0,31.4,16.2,0003.9,0025.57,0017.56,0016.55
2023-05-21 18:54:00,,0833.4,4.99,0.00,29.8,26.3,00.0,37.9,31.2,16.6,0004.0,0025.71,0017.64,0016.58
2023-05-21 18:55:00,,0833.4,5.01,0.00,29.7,26.1,00.0,37.9,31.1,16.6,0004.0,0025.83,0017.67,0016.58
2023-05-21 18:56:00,,0833.4,4.99,0.00,29.7,26.3,00.0,37.9,31.0,17.0,0003.9,0025.83,0017.71,0016.61
2023-05-21 18:57:00,,0833.3,5.00,0.00,29.6,26.6,00.0,37.9,31.0,16.1,0004.0,0025.18,0017.74,0016.64
2023-05-21 18:58:00,,0833.3,5.00,0.00,29.6,26.8,00.0,37.9,31.1,16.4,0003.7,0024.14,0017.72,0016.65
2023-05-21 18:59:00,,0833.3,5.00,0.00,29.6,27.1,00.0,37.9,31.1,17.5,0003.6,0023.82,0017.70,0016.64
